Wind_Speed
36 37 38 40 41 42 42 43 43 44 45 46 47 48 48 48 49 49 48 48 48 47 47 48 47 47 46 45 43 41 40 40 40 41 41 40 40 40 40 41 41 43 44 45 45 45 43 41 40 38 36 35 36 36 35 34 33 33 32 32 32 30 27 27 30 35 38 38 37 37 36 35 34 33 33 32 32 32 30 29 28 28 28 27 27 26 25
37 38 39 40 41 42 43 44 44 44 45 46 46 47 48 49 49 49 49 49 48 48 48 48 48 48 47 46 44 43 42 41 40 40 41 41 41 41 41 42 44 45 46 47 48 47 46 44 42 40 39 37 37 37 37 37 35 34 34 34 33 32 29 27 28 31 35 38 39 38 37 37 36 35 34 34 33 33 32 31 31 30 29 29 28 28 27
38 38 39 40 41 42 43 44 44 45 45 46 46 47 47 48 49 49 49 49 49 48 48 49 49 49 48 48 46 44 43 42 41 41 41 41 42 42 41 42 44 46 47 48 49 49 49 47 45 43 41 40 38 38 38 39 38 36 35 35 34 33 31 29 29 29 31 34 38 39 39 38 38 37 36 35 35 34 33 33 32 31 30 29 29 28 28
38 39 39 40 40 41 42 43 44 45 46 46 47 47 47 47 47 48 48 49 49 49 49 49 50 50 50 49 48 47 45 44 43 43 42 42 42 43 42 42 43 45 47 49 51 51 50 49 47 45 44 42 41 39 39 40 40 39 37 36 36 35 34 32 31 30 29 31 34 37 39 40 39 39 38 37 36 35 34 33 33 32 31 30 30 29 29
37 39 40 40 41 42 42 43 43 44 45 46 47 48 48 48 48 48 48 48 48 48 49 49 49 49 49 49 49 48 47 45 45 45 44 44 43 44 44 43 44 46 47 49 51 52 51 50 49 48 46 45 43 42 41 41 41 41 40 38 37 37 36 35 33 32 31 30 31 34 37 40 41 41 40 39 38 37 36 35 35 34 32 31 31 30 30
35 37 39 40 42 43 43 43 43 44 45 46 47 48 49 49 49 49 49 49 48 48 49 49 49 49 49 49 48 48 47 46 45 45 46 46 45 45 45 45 46 47 48 49 50 51 51 51 51 51 49 48 46 45 43 42 42 42 42 41 39 39 38 38 37 35 34 32 31 31 34 37 41 42 41 40 39 39 38 37 36 35 34 33 32 32 31
31 33 35 38 40 42 42 43 44 45 45 46 47 48 48 49 50 50 50 49 49 49 49 49 50 50 50 49 49 48 48 47 46 45 46 47 47 47 48 47 48 49 50 50 50 50 50 50 51 52 52 51 49 47 46 44 43 43 43 43 42 41 40 40 40 39 36 34 32 31 32 34 37 40 41 41 41 41 40 39 38 37 36 35 34 33 33
29 30 32 35 36 38 40 42 44 45 46 47 47 48 49 49 49 50 50 50 50 49 50 50 50 50 51 51 50 49 49 48 48 47 47 48 49 50 50 50 50 51 52 51 51 50 50 49 50 52 53 53 52 50 48 46 45 44 45 45 44 44 43 42 42 41 39 37 34 33 32 32 32 35 37 40 41 42 42 41 40 39 38 36 35 35 34
29 30 31 32 33 34 36 39 41 43 45 47 48 49 49 50 50 50 50 50 50 50 50 51 51 51 52 52 52 51 50 50 50 49 49 49 51 53 54 54 53 53 54 53 53 52 51 51 51 51 52 53 53 53 51 49 47 46 46 46 46 46 45 45 44 43 42 40 37 36 34 32 31 32 33 36 39 41 42 42 41 40 39 38 38 37 36
30 31 31 32 33 34 34 36 37 40 42 44 46 48 49 50 50 51 51 51 52 52 52 52 52 52 53 54 54 54 53 52 52 52 52 52 53 55 56 57 56 56 56 55 55 54 53 53 53 52 52 53 53 54 53 52 50 49 48 47 47 47 47 47 46 45 44 42 40 39 37 35 33 32 33 34 36 39 41 42 42 42 41 41 40 39 38
31 32 33 33 34 35 35 35 36 37 39 41 44 46 48 49 50 51 53 53 54 54 54 54 54 54 55 55 56 56 56 55 55 55 55 55 55 56 58 59 59 59 58 57 57 57 56 56 55 55 54 54 53 53 54 53 53 51 50 49 48 48 48 48 47 46 45 44 43 42 40 39 37 35 34 35 35 36 38 40 42 43 43 42 41 40 38
31 32 33 34 35 36 37 38 38 38 39 40 42 44 45 47 49 52 53 54 55 55 55 55 56 57 57 57 58 58 58 57 57 58 58 58 58 59 60 61 62 61 61 60 59 59 58 58 58 57 57 56 55 54 53 54 54 53 52 51 50 49 48 48 48 47 46 46 45 44 43 42 41 38 37 36 36 36 36 38 39 42 43 42 41 40 38
29 30 31 32 34 36 37 38 39 40 41 41 42 44 45 46 48 51 52 54 55 56 57 57 57 58 59 59 59 60 60 60 59 60 60 61 61 62 63 64 64 64 63 63 62 61 60 60 60 60 59 58 57 56 55 55 54 54 53 53 53 51 49 48 48 48 48 48 48 47 47 46 45 42 40 38 37 37 36 36 37 39 40 41 41 40 39
25 28 29 30 31 33 35 36 37 39 41 42 43 45 46 47 49 50 51 53 55 56 57 58 59 59 60 60 60 61 62 62 62 62 62 63 63 64 65 67 68 68 67 66 65 65 64 63 62 62 62 61 60 59 58 57 56 54 54 54 54 53 52 50 49 49 49 50 50 50 51 51 49 46 43 40 37 36 36 35 35 35 37 38 39 39 39
18 21 24 26 28 30 32 33 34 36 38 40 42 44 46 48 50 51 52 53 55 56 57 58 59 60 61 61 62 62 62 64 64 64 64 65 65 66 67 68 70 71 71 70 69 68 68 67 66 65 65 64 63 62 60 60 58 56 54 54 54 54 54 53 53 53 53 53 52 52 53 52 49 46 44 41 38 37 36 34 34 33 33 34 35 36 36
15 17 20 22 23 25 27 29 31 32 34 35 37 40 42 44 47 50 52 54 55 56 57 58 60 61 61 62 62 63 63 64 65 65 66 66 67 67 68 69 71 73 74 74 73 73 72 71 70 68 68 67 66 66 64 63 61 59 57 55 55 54 54 54 54 54 56 57 55 54 53 51 48 46 45 43 40 39 37 35 34 32 32 32 32 32 32
15 16 17 18 20 22 24 26 28 30 31 33 35 37 39 41 43 45 47 50 53 55 57 58 60 61 63 64 64 65 65 65 65 66 66 67 67 68 69 70 72 74 75 76 76 76 76 75 74 72 71 69 68 68 69 67 65 63 60 59 57 56 55 54 54 54 56 59 59 56 53 50 49 48 47 45 43 41 39 37 35 33 32 31 31 30 29
17 18 18 18 18 19 21 22 24 25 26 28 30 33 37 40 42 43 45 46 48 50 53 56 58 60 62 64 66 67 68 68 68 68 68 68 68 68 69 71 72 74 75 76 78 79 79 78 77 76 75 73 70 70 71 71 69 66 64 62 61 60 58 56 55 55 56 58 60 58 55 51 49 49 49 48 46 44 42 39 37 35 33 33 32 30 28
21 21 22 21 21 21 21 22 23 23 24 25 26 27 30 34 37 41 43 45 47 47 49 51 53 56 59 61 64 66 69 70 71 72 72 71 71 70 69 70 72 74 75 76 78 80 82 82 81 80 79 78 75 72 72 72 72 70 68 66 65 63 61 59 57 56 56 57 58 59 57 53 50 49 50 49 48 47 45 42 40 38 36 35 34 32 30
24 25 24 24 25 25 24 24 25 25 26 27 27 28 29 30 31 34 37 41 44 47 49 50 51 52 54 57 59 62 65 68 71 73 75 75 75 74 73 72 72 74 75 76 77 79 81 84 84 83 82 81 80 77 74 73 73 73 72 69 67 66 64 62 60 59 58 58 57 57 58 57 53 50 50 50 49 48 47 45 43 41 39 38 36 35 33
27 26 26 26 27 27 26 27 27 27 27 28 29 30 31 32 32 33 34 36 38 41 45 49 52 54 54 55 56 58 60 63 67 70 74 77 78 78 77 76 75 75 75 76 76 77 79 82 86 86 85 83 83 81 79 76 74 73 73 72 70 68 67 65 63 61 61 60 58 56 56 57 56 53 52 51 51 50 48 47 46 45 43 41 39 37 37
29 27 28 30 30 28 28 29 28 28 29 30 30 31 33 34 35 35 36 37 38 39 41 44 48 52 55 57 58 57 57 58 61 64 68 73 77 80 81 81 79 78 77 77 77 77 77 80 83 87 87 86 85 84 83 81 78 75 73 73 72 70 68 67 66 64 61 61 60 58 55 55 56 56 55 54 53 52 50 48 48 48 47 45 42 41 40
29 28 31 34 33 30 29 29 29 30 31 32 33 33 34 35 36 37 38 39 40 42 43 44 46 49 52 56 59 59 58 57 58 59 62 65 70 76 81 83 84 83 82 80 79 78 78 78 81 84 87 88 88 88 87 86 83 80 77 74 73 72 70 68 68 66 62 60 62 61 58 55 55 56 57 56 55 54 52 50 50 50 50 49 47 45 44
27 25 27 32 34 33 30 29 30 32 33 33 33 33 34 35 37 38 39 41 42 43 44 45 46 48 50 53 56 59 60 60 59 59 59 60 62 67 74 80 85 87 87 85 84 81 80 79 80 81 84 86 88 90 90 90 88 85 82 78 75 74 73 71 71 69 64 61 62 63 61 59 57 57 58 59 57 55 54 53 52 51 50 50 49 48 47
27 24 24 26 28 30 31 31 32 33 33 33 33 33 35 36 37 38 39 40 41 42 43 44 45 48 50 51 53 56 58 61 61 60 59 58 58 60 64 70 78 84 88 89 89 87 84 82 81 81 82 83 86 88 90 90 90 88 86 83 78 74 73 73 73 72 69 66 64 64 64 64 62 58 58 61 61 58 57 55 53 52 51 50 49 49 49
28 27 26 26 26 27 30 31 33 33 32 32 32 33 34 36 37 38 39 40 42 43 44 45 46 47 48 49 51 53 55 58 61 62 60 58 58 58 59 61 67 74 82 88 91 91 89 87 84 83 82 82 84 87 88 90 90 89 88 86 82 77 75 73 71 71 71 70 67 66 66 67 66 61 58 60 62 61 59 57 54 53 52 51 50 50 50
27 26 26 27 27 28 30 31 31 30 30 31 31 32 34 35 36 38 39 41 43 44 44 44 45 45 46 47 48 50 52 54 57 60 60 59 58 58 58 59 60 64 70 79 86 90 92 92 89 86 84 82 83 85 87 89 90 90 89 87 84 80 78 75 70 68 69 71 70 69 69 69 68 64 60 59 61 60 59 58 56 53 52 52 52 52 52
25 24 24 25 26 27 27 27 28 28 28 29 30 31 32 34 35 37 39 41 42 43 43 43 43 43 43 44 45 46 48 51 54 57 59 59 58 57 56 57 58 59 61 67 75 83 89 93 93 91 88 86 85 85 86 89 91 91 90 89 86 82 80 78 73 66 64 67 70 71 70 69 69 65 60 59 60 59 58 57 55 52 51 51 52 52 53
23 23 23 23 24 24 24 25 25 26 26 27 28 30 32 33 35 37 38 40 41 42 42 43 42 42 42 43 43 43 45 47 50 53 56 57 57 56 55 55 56 57 57 58 63 71 80 88 92 92 91 91 89 87 86 88 90 91 91 90 88 84 81 80 77 68 61 60 64 68 69 68 67 64 61 60 61 60 57 56 54 52 52 51 51 51 51
21 21 21 21 22 22 23 24 24 25 25 26 28 30 32 34 35 36 38 39 40 40 41 41 42 42 41 42 42 41 42 44 46 48 51 53 54 55 54 53 53 53 54 54 56 61 68 77 85 89 92 94 94 91 88 87 89 91 91 91 90 87 83 81 80 76 66 58 56 61 66 66 64 62 61 61 62 62 59 55 53 53 52 51 50 50 50
19 20 20 20 21 22 23 24 25 26 27 28 30 32 34 35 35 35 36 38 39 39 39 39 40 40 41 41 41 40 40 39 40 42 45 48 50 52 53 53 51 50 51 52 54 55 59 66 75 82 86 91 94 95 92 89 88 90 91 91 90 89 86 83 82 81 77 68 59 56 59 63 63 61 60 60 61 60 57 54 53 52 52 51 49 49 49
20 21 22 22 23 24 24 25 27 28 29 30 32 33 34 33 33 33 34 36 36 36 36 37 37 38 39 39 39 38 37 35 35 38 41 44 46 48 50 51 50 49 50 51 52 53 54 57 63 71 78 85 90 94 95 93 90 90 91 91 90 89 87 85 83 82 83 80 72 62 57 59 62 63 61 60 60 57 54 52 53 52 51 51 50 48 48
24 24 25 25 25 25 26 27 28 29 29 30 32 32 32 31 31 32 32 32 33 33 34 34 35 36 36 37 36 36 34 33 34 36 39 40 42 45 48 50 50 51 51 51 51 52 53 53 55 60 68 76 82 89 94 95 93 91 90 91 91 89 87 85 84 84 83 83 81 73 64 59 61 63 63 62 60 57 53 51 51 51 51 51 50 48 47
25 25 25 25 25 26 27 28 28 27 28 30 31 30 29 29 29 30 30 30 30 31 32 33 34 34 34 34 34 32 31 31 32 34 35 38 40 44 47 48 48 48 49 50 50 51 52 52 52 55 60 66 73 81 88 93 94 93 92 91 91 90 87 85 84 84 83 82 82 80 73 65 61 61 63 63 61 58 54 52 51 52 52 52 50 49 48
25 25 25 24 24 25 26 26 26 27 28 29 29 27 27 28 28 29 29 29 30 30 31 32 32 32 32 32 31 29 28 29 29 30 32 35 39 42 43 43 43 43 44 46 47 48 50 52 53 53 55 59 64 70 79 87 92 94 93 92 92 91 89 86 83 82 83 82 81 81 79 73 65 61 61 63 63 59 56 53 52 52 53 52 51 50 49
24 24 24 23 24 25 26 26 27 27 27 27 26 26 26 27 28 28 28 29 30 30 30 30 30 30 30 29 27 25 25 26 26 27 29 32 35 38 39 39 39 40 41 42 43 45 47 50 52 52 53 54 58 62 69 78 86 91 93 93 93 92 90 87 83 81 80 80 80 80 80 78 73 64 59 61 63 62 59 56 54 53 53 52 51 50 50
23 23 23 23 23 24 25 26 26 26 25 24 24 24 25 26 27 28 28 29 29 30 29 28 28 28 28 27 23 21 22 24 24 25 27 30 32 34 35 35 36 37 39 39 40 42 43 47 49 50 50 51 53 56 61 68 77 84 89 91 93 93 91 88 84 81 79 78 78 78 79 79 78 72 63 59 59 60 60 58 56 55 53 52 51 51 51
26 25 24 24 24 24 25 25 24 23 23 23 23 24 25 27 28 28 28 28 28 28 27 26 26 27 27 25 21 20 22 24 24 24 25 26 28 30 31 31 31 33 34 36 37 38 41 44 46 47 48 49 51 53 56 61 67 74 81 86 90 91 90 87 84 82 80 78 76 76 76 77 78 77 72 65 60 58 58 59 59 56 54 53 51 50 51
27 27 26 25 24 24 25 25 24 22 21 22 24 25 27 28 28 27 26 26 26 27 26 25 25 26 26 23 21 20 22 24 23 23 23 23 25 27 29 28 28 29 30 32 35 36 38 40 42 43 45 47 49 51 53 56 59 65 71 78 84 86 86 84 83 82 81 79 76 75 74 75 77 78 78 74 67 61 59 60 61 59 56 54 52 51 51
27 26 25 24 24 24 25 25 23 21 21 23 25 26 26 27 27 25 24 24 25 25 25 24 24 25 25 23 21 20 21 23 23 22 22 23 24 26 27 26 25 25 26 28 31 34 36 37 39 41 43 44 47 49 51 52 54 57 62 69 76 78 77 76 78 80 80 79 77 74 73 73 75 77 78 78 75 69 64 62 62 61 59 56 54 52 52
27 26 25 23 23 23 24 23 22 20 21 23 24 24 25 26 25 22 21 22 24 25 26 25 25 24 24 23 21 20 21 22 21 20 20 22 23 25 26 25 23 23 24 25 26 28 31 33 35 37 39 41 44 47 49 50 51 52 55 60 67 70 68 64 65 70 74 77 77 76 73 72 72 74 75 77 78 76 72 67 65 63 62 60 58 56 54
26 27 28 26 23 22 23 23 23 22 22 22 22 22 23 23 22 20 21 22 24 26 27 26 25 24 24 23 22 21 20 20 20 19 19 20 20 21 23 25 23 20 20 22 23 24 26 29 30 32 34 37 40 43 45 47 48 49 51 53 58 61 61 58 58 60 64 68 72 75 74 72 70 70 71 73 75 76 76 74 71 68 66 66 65 62 60
31 32 32 31 28 25 24 25 26 24 22 21 20 21 21 20 19 19 21 23 25 26 27 27 26 24 23 23 22 21 19 18 17 17 18 19 19 18 16 19 22 21 18 19 21 21 22 25 27 28 30 33 35 38 41 43 44 46 47 48 50 53 55 55 56 58 59 60 64 68 71 71 70 69 68 70 71 72 74 75 76 74 72 72 71 69 66
36 36 33 31 31 29 28 28 29 27 23 21 20 20 19 18 17 18 20 22 25 26 27 27 27 24 22 21 21 20 18 16 15 15 17 18 19 17 12 10 15 19 19 19 20 22 24 25 24 23 23 26 30 33 35 37 39 42 44 44 45 46 48 50 52 54 56 57 60 64 67 68 68 67 66 66 67 69 71 72 74 75 76 76 74 72 68
38 36 33 32 32 32 30 29 29 28 24 21 20 20 18 17 17 18 20 23 26 26 26 27 26 23 20 18 18 18 18 16 14 13 14 16 17 16 13 8 8 11 13 14 15 17 20 22 22 20 20 22 25 28 30 32 34 37 39 40 40 40 42 45 49 51 52 53 55 59 62 65 66 66 66 64 64 65 68 69 70 73 75 76 75 72 69
36 36 35 35 35 35 31 27 27 28 26 22 20 19 18 16 17 19 22 23 25 24 24 25 24 22 19 16 14 16 18 17 13 11 13 15 15 14 13 12 12 13 13 13 13 13 14 16 18 19 20 22 24 26 28 31 33 35 38 40 39 39 40 44 48 49 47 46 47 50 54 58 61 63 64 63 62 61 63 65 66 68 70 73 74 73 70
32 33 34 34 34 34 30 24 23 26 27 23 20 18 17 15 16 18 20 21 21 21 21 22 22 21 18 15 12 13 15 14 12 11 13 14 15 14 12 13 15 16 15 14 13 12 13 14 16 17 19 21 24 25 27 29 32 36 39 40 39 39 41 44 46 45 42 41 43 45 47 51 55 58 60 61 60 59 59 60 61 62 63 66 70 72 71
27 29 30 30 30 31 28 23 21 24 25 22 18 16 14 12 13 14 16 17 18 19 19 20 20 19 17 15 12 11 12 13 14 14 14 14 14 14 14 13 13 16 16 16 15 13 13 13 15 16 17 20 23 25 27 28 31 35 38 38 38 39 40 41 41 39 37 37 40 42 43 46 50 53 56 58 59 58 56 56 57 57 58 60 63 66 69
21 22 23 25 26 26 25 22 21 23 23 20 16 13 11 10 11 13 15 16 18 19 19 19 19 18 16 14 12 11 11 13 15 16 15 13 13 13 14 13 12 14 16 17 16 16 15 15 14 15 16 18 21 24 26 28 31 34 36 37 37 38 38 38 37 34 32 32 35 38 40 44 47 48 50 53 55 55 55 54 54 55 55 57 60 64 67
18 18 19 21 23 22 20 19 20 21 20 17 13 11 9 9 11 13 14 16 17 19 19 19 18 17 15 13 12 11 10 11 13 15 15 14 12 12 12 12 11 12 15 17 17 17 17 16 15 14 14 17 20 22 24 26 28 31 35 37 37 37 37 36 35 33 31 31 33 35 38 41 44 45 45 46 49 50 50 51 52 53 54 56 59 62 66
16 17 18 20 20 18 17 18 20 21 18 14 11 9 8 9 10 12 13 14 16 18 19 19 18 17 14 13 12 11 10 10 11 12 13 13 12 10 8 7 7 9 12 16 18 17 16 16 16 15 14 15 18 21 23 25 26 27 30 34 35 35 35 34 34 33 33 34 35 34 34 36 39 41 41 43 45 46 46 46 47 49 52 54 57 60 62
16 17 17 18 18 17 17 18 20 19 15 12 10 9 8 9 10 10 11 13 16 18 19 18 18 16 14 13 13 12 12 12 12 11 11 11 11 10 8 6 5 6 8 12 16 17 16 15 16 16 15 15 16 19 23 26 27 27 27 29 32 33 33 33 32 32 33 34 34 32 31 32 33 34 36 38 41 42 43 42 41 42 45 47 50 54 57
Wind_Direction
220 220 221 220 220 220 220 220 220 220 220 221 221 222 223 224 225 225 226 226 229 230 231 232 233 233 234 234 233 233 233 233 233 234 236 235 232 229 228 226 224 223 222 219 218 218 220 222 224 224 223 224 226 228 227 225 223 221 220 221 225 229 231 230 228 225 222 220 218 218 218 220 221 222 221 220 218 216 214 212 210 208 207 206 206 207 208
221 221 221 221 221 221 222 222 221 221 221 222 223 223 224 226 226 227 227 228 229 230 231 233 234 234 234 234 232 231 232 233 233 233 234 235 235 233 231 229 227 225 223 222 219 218 220 221 223 225 225 224 225 227 228 226 225 224 223 223 225 227 228 228 229 229 227 226 224 222 221 221 222 223 224 224 222 220 218 216 214 212 210 209 208 208 210
224 225 224 223 223 223 223 223 223 223 223 223 224 225 226 227 228 228 228 228 230 231 232 234 235 236 236 235 233 230 229 230 231 232 232 233 234 234 232 231 229 226 224 224 222 220 220 221 223 224 225 226 226 227 228 228 226 225 225 226 227 228 228 227 227 229 230 229 228 227 225 224 223 224 226 227 226 225 223 221 219 217 215 213 211 211 212
226 227 228 227 227 227 226 226 225 225 225 224 225 226 227 228 229 230 229 229 229 231 233 234 235 237 237 237 236 233 230 228 229 230 231 231 233 233 232 230 229 227 225 225 225 223 222 222 223 224 225 227 227 227 228 229 228 226 226 226 227 229 230 230 229 229 230 230 230 230 229 229 227 226 226 228 229 229 228 227 225 223 221 219 217 215 215
228 228 229 230 230 230 229 229 228 228 228 227 227 227 228 229 230 232 232 231 230 231 232 233 235 237 238 238 238 236 233 230 228 228 229 230 231 232 232 230 228 228 226 225 226 226 225 223 223 224 225 227 228 228 228 229 229 228 227 226 226 228 230 232 232 231 231 231 231 231 231 232 231 229 228 228 229 230 231 230 229 228 226 225 224 222 220
231 230 230 231 231 232 231 231 230 230 230 230 230 230 231 231 231 233 234 234 233 232 232 232 234 236 237 238 239 238 236 232 229 226 226 227 229 230 231 229 227 226 226 226 227 227 227 226 225 225 226 227 229 229 229 230 230 230 229 227 226 226 229 232 234 234 233 232 232 232 233 233 234 233 232 230 230 231 232 232 232 231 230 229 228 227 226
232 231 231 231 232 233 234 233 233 232 232 232 233 233 233 233 234 234 235 235 235 235 234 233 233 234 236 238 238 238 237 235 231 228 225 224 225 227 229 228 225 223 224 226 227 229 229 229 228 227 227 228 229 230 230 230 230 231 230 229 228 227 227 231 235 236 236 234 234 234 235 235 236 236 235 234 233 233 233 233 234 233 233 232 231 232 231
233 232 232 232 232 233 234 235 235 234 234 233 234 234 234 234 235 235 236 236 236 237 236 236 235 234 234 236 237 237 237 237 234 230 226 223 222 223 225 226 224 223 224 226 227 229 231 231 230 230 229 229 230 231 232 231 230 231 231 231 230 229 228 229 233 237 238 237 236 236 237 238 238 238 238 238 237 236 235 235 235 235 236 235 235 235 235
234 234 234 234 234 233 233 233 234 235 236 235 235 235 235 235 236 236 237 237 237 237 238 238 238 237 235 235 235 236 236 236 235 233 228 224 222 222 223 224 224 224 224 225 227 229 230 232 232 232 231 231 231 232 232 232 231 230 230 231 231 230 229 229 232 235 238 239 238 238 238 239 239 240 240 239 239 238 238 237 237 237 237 237 237 237 237
234 235 236 236 235 235 234 233 233 234 235 236 237 237 237 236 237 237 237 238 238 238 238 239 239 239 239 237 236 236 235 235 235 234 231 227 224 223 223 223 224 225 225 225 226 228 230 232 233 234 233 233 233 233 233 233 232 231 231 231 232 231 231 231 231 234 236 238 239 239 239 239 239 240 240 240 239 239 239 238 238 238 237 238 239 239 239
237 237 238 238 238 238 237 236 235 235 235 236 237 238 238 238 238 238 238 239 239 239 239 239 239 240 241 240 239 238 237 236 234 234 233 230 227 225 224 223 224 225 226 226 227 228 229 231 233 234 234 234 234 234 234 234 233 233 232 232 233 233 232 232 233 234 236 238 240 240 240 240 239 239 240 241 240 240 239 238 238 238 238 238 239 240 241
240 240 240 240 240 241 240 240 239 238 237 237 237 238 239 239 240 240 240 240 240 240 240 240 240 240 240 241 241 240 239 238 236 234 233 232 230 227 225 224 224 224 226 227 228 229 229 230 232 233 234 234 235 235 236 235 235 234 233 233 233 233 234 234 235 235 236 237 239 240 241 241 240 239 239 240 240 240 240 239 239 238 238 239 239 240 241
243 243 243 242 243 243 242 242 242 242 241 240 239 239 238 238 240 241 242 242 242 242 241 241 241 241 241 241 241 241 241 240 239 237 235 233 231 229 227 225 224 224 225 227 228 229 230 230 231 231 232 234 235 236 236 237 236 235 234 234 233 233 234 235 236 236 236 236 237 238 240 240 239 238 237 237 238 240 240 240 240 240 239 239 238 239 240
244 244 244 243 244 244 244 244 245 245 245 244 243 242 241 240 240 241 241 243 243 243 243 243 243 242 242 242 242 242 242 241 241 240 238 236 234 231 229 227 225 224 225 226 228 229 230 231 231 231 231 233 235 236 237 237 237 237 236 235 234 234 234 235 237 237 237 236 236 236 238 238 236 236 236 236 238 240 241 241 241 241 241 240 239 239 239
244 244 243 243 243 245 246 246 247 246 246 247 247 247 246 245 243 242 242 242 243 243 244 245 245 244 244 244 244 243 243 243 242 241 241 239 237 234 232 230 228 225 224 225 227 228 230 230 231 232 232 232 234 235 237 237 238 238 237 235 235 235 234 235 237 238 238 238 237 237 239 239 238 238 239 239 240 241 242 243 242 242 241 241 240 238 238
247 247 247 246 245 246 246 247 248 248 248 249 249 250 250 249 248 247 245 244 244 243 243 244 245 246 246 246 246 245 245 245 244 243 243 241 240 238 235 233 231 228 225 225 225 227 229 230 230 231 232 233 234 235 236 237 238 238 238 237 235 235 235 235 236 239 239 239 238 238 239 240 240 241 240 240 240 241 241 241 241 241 240 240 239 238 237
248 249 249 249 248 248 247 248 250 251 252 253 253 252 251 251 250 250 249 248 247 246 245 245 245 245 246 246 246 247 247 246 246 246 245 243 242 241 239 236 234 231 228 226 225 226 227 229 229 230 231 232 234 235 236 237 237 238 238 237 237 236 236 237 238 239 240 240 239 239 239 239 239 240 241 240 239 239 239 239 239 239 240 240 239 237 236
252 252 251 249 248 247 248 248 250 252 254 255 256 256 254 253 252 251 251 251 250 249 248 247 246 246 246 246 246 246 246 247 247 247 247 246 244 242 241 239 238 235 231 228 226 226 226 228 229 229 230 232 233 234 236 237 237 237 237 238 238 238 238 239 240 241 241 240 239 238 238 239 239 239 241 241 239 238 237 238 238 238 239 240 240 239 238
258 257 254 252 251 250 249 250 253 255 258 259 260 260 259 258 257 255 254 253 253 252 251 250 249 248 247 247 246 246 246 246 247 247 247 247 246 244 242 241 240 238 235 232 229 227 227 227 228 228 230 231 232 233 235 236 237 238 238 237 238 238 238 238 240 242 242 242 240 238 237 238 238 238 239 240 240 238 237 237 237 238 239 240 242 242 241
258 258 257 257 255 254 254 254 255 257 260 261 261 261 262 262 262 261 260 258 257 256 254 253 251 250 249 248 248 247 247 247 247 246 247 247 247 246 245 243 241 240 239 236 233 230 229 229 228 227 228 230 232 232 233 234 236 238 239 239 238 238 238 238 239 241 243 243 242 240 237 236 237 237 238 239 240 239 237 235 235 237 239 240 241 243 243
259 258 259 260 260 259 258 257 257 258 260 262 262 261 261 262 263 264 265 264 263 261 259 257 255 252 251 250 249 249 248 248 248 247 247 247 247 247 246 245 243 242 240 239 237 234 232 231 230 229 228 229 231 232 232 233 235 237 239 240 240 239 239 239 239 240 241 243 243 241 238 236 236 236 237 239 240 240 239 236 234 236 238 240 241 243 243
263 261 261 262 263 262 259 258 260 263 265 265 265 264 263 263 264 265 266 266 266 266 265 263 260 257 254 252 251 250 249 249 249 249 248 247 247 246 246 246 245 244 242 240 239 237 235 233 232 231 229 229 229 231 232 232 233 235 237 239 241 241 240 240 240 240 240 241 242 241 238 235 235 235 236 238 240 241 241 239 237 236 237 239 240 242 244
265 265 263 262 261 259 259 261 263 266 268 269 268 267 266 265 266 266 267 268 269 269 269 268 265 262 259 256 253 251 250 250 250 250 250 249 248 247 246 246 245 245 244 242 240 239 237 236 234 233 232 231 230 231 232 233 233 233 235 236 239 241 242 241 241 241 241 240 239 239 238 235 234 234 233 234 237 239 240 241 240 239 238 238 239 241 243
266 269 267 263 258 255 256 261 264 266 268 269 269 269 269 269 270 270 271 271 271 272 272 271 269 266 263 260 257 253 251 250 250 251 251 251 250 249 247 246 245 244 244 244 243 240 239 238 237 235 233 232 232 232 233 234 234 233 234 234 236 239 242 243 243 242 241 240 238 237 237 237 236 234 233 233 235 237 239 240 241 241 240 239 239 240 241
262 265 268 265 259 253 254 258 262 264 266 268 269 271 272 273 273 274 273 273 272 271 272 271 270 268 265 262 260 256 252 250 250 250 251 252 252 251 250 248 246 244 243 243 243 242 241 239 238 237 235 233 233 233 233 234 234 233 233 233 234 236 239 242 244 243 241 239 237 236 236 236 236 234 233 233 234 236 237 239 239 240 241 241 241 241 241
261 262 264 263 258 253 253 257 260 263 266 269 271 273 274 274 275 275 274 274 273 273 273 272 271 269 266 263 261 258 255 251 249 249 250 251 252 253 252 251 249 246 243 242 242 242 242 241 239 238 237 235 234 233 233 233 234 233 233 233 233 234 236 239 243 244 242 240 237 236 237 237 237 236 235 232 232 234 236 237 238 239 240 241 242 242 242
264 265 264 261 257 254 255 258 261 265 268 270 271 273 275 276 277 278 277 277 276 275 275 274 273 271 268 265 262 259 256 253 250 248 248 249 251 252 253 253 252 249 246 243 241 240 241 241 240 239 238 237 236 234 233 233 233 233 233 233 233 234 235 236 239 242 243 242 239 238 239 239 239 240 238 233 230 231 234 235 237 238 239 241 242 242 242
265 265 264 261 259 258 259 261 263 266 268 270 273 276 279 281 283 283 282 281 280 278 277 276 276 273 270 267 265 261 257 254 251 248 248 249 251 252 253 253 252 252 250 247 243 241 239 239 239 239 239 239 238 235 233 233 233 233 233 233 233 233 235 236 237 237 239 241 241 240 239 239 240 242 240 234 229 229 230 231 234 236 238 241 242 242 242
265 265 263 262 262 263 263 263 264 266 269 273 277 282 285 287 287 287 286 285 283 281 279 278 278 276 272 269 267 264 259 255 252 250 249 251 252 254 254 254 253 252 252 250 248 244 241 239 238 237 238 239 239 237 234 233 233 233 233 234 234 233 234 235 235 233 232 234 238 239 238 238 238 240 239 233 227 226 227 228 230 234 237 240 243 243 243
265 265 265 266 267 267 266 266 267 269 273 278 283 288 290 290 290 289 288 286 284 283 280 278 277 276 274 271 269 266 261 257 254 252 252 252 254 255 256 256 254 252 252 252 250 248 245 241 238 236 236 237 238 238 236 234 233 233 234 234 235 235 234 234 235 233 230 228 232 237 237 236 235 237 238 233 227 225 226 228 230 233 236 240 243 244 244
266 267 269 272 274 273 272 271 270 272 276 281 287 290 292 292 291 289 286 285 284 281 279 276 275 275 274 272 270 267 264 260 256 254 253 253 254 256 257 258 255 252 251 251 251 250 248 244 240 237 235 236 237 237 236 235 233 233 234 235 235 235 235 234 234 234 233 231 231 233 235 234 232 233 235 234 228 225 225 227 229 232 234 236 239 243 245
269 272 276 278 277 275 273 272 272 274 279 283 288 291 292 292 290 288 285 283 281 278 275 274 273 273 273 271 269 267 265 261 257 254 253 253 254 255 257 257 256 252 249 249 249 249 248 246 243 239 236 236 236 236 236 235 234 233 234 235 236 236 235 234 234 234 235 235 234 234 234 234 232 231 232 232 228 225 225 227 229 231 232 233 234 238 242
274 277 279 278 276 272 271 271 272 275 280 284 289 292 292 290 289 288 287 285 281 276 274 274 275 275 273 270 267 265 263 260 256 254 254 254 255 256 257 257 256 253 251 249 248 247 246 245 243 240 237 236 236 235 235 234 234 233 234 235 236 236 236 235 235 234 235 237 237 236 236 235 232 229 229 229 226 224 225 228 229 231 232 232 234 236 240
277 279 279 278 275 271 270 271 273 276 281 287 290 291 289 289 291 292 292 290 286 280 277 277 278 277 275 271 269 266 262 258 256 255 256 257 258 258 259 259 258 257 255 252 249 247 245 243 240 238 236 235 235 235 234 234 233 233 234 235 236 237 237 236 236 235 235 236 238 238 237 237 234 229 227 226 225 224 225 228 230 231 231 232 234 237 240
279 280 280 279 277 274 273 273 275 279 284 288 290 289 289 292 296 297 297 296 293 287 283 281 281 280 277 274 271 268 264 259 257 258 259 259 259 259 259 260 258 256 255 253 250 246 243 240 238 236 234 233 233 233 233 233 233 233 233 234 236 238 238 237 237 236 235 236 237 237 238 237 235 230 226 224 224 225 227 230 231 231 231 232 234 237 239
283 283 282 280 277 275 275 276 278 281 285 288 289 289 292 297 301 302 300 299 297 293 289 286 284 282 280 277 273 270 266 263 261 261 260 259 258 259 259 259 258 255 254 253 251 247 242 239 236 235 233 232 231 231 232 232 232 232 232 233 235 237 239 239 237 236 236 236 236 237 238 238 237 233 227 224 225 227 229 231 232 231 230 231 234 235 237
285 286 285 283 279 276 275 276 278 281 284 286 288 290 295 301 305 306 303 301 299 297 294 290 287 285 282 280 277 273 269 266 264 261 258 257 258 259 260 260 258 255 252 250 249 246 241 236 234 233 232 231 230 230 230 230 231 231 231 232 234 236 238 239 238 237 237 236 236 237 238 239 240 237 232 227 226 228 229 231 231 230 229 230 232 234 235
283 283 284 283 281 278 277 278 278 280 283 285 288 291 296 301 305 306 304 303 302 301 298 294 290 287 285 283 281 276 271 269 267 261 256 255 260 264 265 263 259 254 250 247 245 243 239 234 231 231 231 230 230 229 229 230 230 230 231 232 233 235 237 239 238 237 237 237 236 237 237 239 240 240 238 233 230 228 229 229 229 228 228 229 231 233 234
281 281 281 280 280 280 279 277 276 276 280 286 291 293 295 299 303 304 303 305 306 305 303 299 294 290 288 286 283 277 273 272 271 267 263 264 270 273 274 271 264 254 247 243 241 239 237 234 232 231 231 230 230 229 230 230 230 230 230 231 232 234 236 238 238 237 237 237 237 237 237 238 240 241 241 239 235 231 229 229 228 228 228 230 232 234 236
282 281 280 278 279 280 279 275 272 272 278 287 293 293 295 299 301 300 302 307 311 313 312 307 300 295 292 289 285 281 278 276 275 273 274 277 277 273 271 272 266 255 245 241 238 236 235 234 232 231 232 232 230 230 230 230 230 230 230 230 231 232 235 237 237 237 237 237 237 237 237 238 239 240 241 241 239 236 232 230 229 229 230 233 236 238 240
279 279 278 276 276 277 276 270 267 272 282 289 292 292 294 298 299 296 298 308 316 320 320 316 307 300 295 292 287 284 280 277 276 276 280 284 282 272 264 263 262 255 247 243 240 236 233 231 231 231 231 232 232 231 230 230 230 230 230 230 230 230 232 234 236 237 238 238 237 237 236 237 238 239 240 241 242 241 239 235 232 231 233 237 240 243 246
267 269 269 269 271 272 270 266 266 272 282 287 288 290 293 297 296 292 292 300 310 317 321 320 313 304 297 293 289 285 281 278 276 277 279 283 286 279 265 253 249 247 245 242 240 236 231 228 227 228 229 230 231 231 230 230 230 230 230 229 228 228 228 228 229 232 235 237 237 236 236 237 238 239 239 240 241 243 244 242 239 237 238 241 244 247 251
258 261 264 267 267 264 263 264 266 270 277 281 283 287 290 293 294 294 294 297 304 310 315 318 315 307 298 294 291 288 284 280 278 280 283 285 289 293 278 249 235 233 234 231 226 223 221 219 220 223 226 228 229 230 230 230 230 229 228 226 225 224 224 224 225 228 231 234 235 235 236 236 237 238 239 240 241 243 245 246 245 243 243 244 247 250 253
258 259 262 266 264 261 261 263 263 264 269 275 278 281 284 286 291 297 299 300 304 307 309 312 312 307 298 294 294 293 291 287 285 287 291 291 289 290 287 255 232 232 236 232 223 219 217 217 218 220 225 228 229 228 228 227 227 226 225 222 220 219 220 223 226 229 231 233 234 235 236 236 237 238 239 240 241 242 243 245 247 247 246 247 249 251 253
257 256 255 256 256 257 261 264 261 257 261 270 274 275 277 280 286 294 298 299 301 303 303 306 308 305 296 291 294 294 292 291 290 290 293 296 291 282 273 253 229 230 240 246 243 234 228 227 228 230 232 232 230 228 225 223 221 220 217 213 212 214 217 222 226 229 231 232 232 233 234 235 236 237 239 241 242 242 243 244 246 247 248 249 249 251 253
256 254 252 250 249 251 258 264 261 255 256 264 270 270 272 278 287 294 299 299 298 297 298 300 303 301 292 284 286 289 289 289 291 288 287 292 295 287 269 249 236 234 238 246 254 252 242 238 239 241 239 235 231 228 225 220 215 210 207 207 208 212 216 220 223 226 229 229 229 229 230 233 235 236 238 240 242 243 244 245 246 247 249 249 250 250 251
255 253 251 250 248 248 252 260 263 258 255 258 263 266 270 279 289 297 302 302 299 297 297 297 299 298 290 279 275 280 283 281 279 278 278 282 290 293 281 259 246 243 242 242 246 250 251 249 246 245 241 233 226 224 223 219 212 207 204 205 209 214 217 219 222 225 227 229 229 228 229 231 233 234 236 239 241 244 245 246 247 248 249 249 250 250 250
255 253 250 249 247 244 245 252 261 260 255 254 256 259 265 276 287 296 303 306 305 302 300 297 296 295 289 276 265 265 269 267 264 266 272 281 290 296 294 278 255 244 242 241 239 242 250 254 250 244 238 231 225 221 219 216 212 208 203 203 210 218 220 219 220 223 227 227 227 227 229 232 234 236 236 238 240 243 245 247 248 249 249 249 249 248 248
254 250 246 244 242 240 241 249 259 258 252 248 248 251 256 268 282 293 301 305 306 305 303 299 296 294 286 273 261 258 260 260 260 264 271 279 286 292 297 293 271 247 239 238 238 239 246 252 251 244 235 228 223 220 217 214 212 209 205 205 211 218 219 216 217 221 224 225 225 225 227 230 233 234 236 236 238 241 244 247 249 250 250 250 248 247 245
246 241 236 235 236 237 241 248 252 249 242 238 239 242 249 265 282 294 302 305 306 305 303 299 297 294 284 269 258 254 253 253 256 261 267 273 278 283 292 296 281 251 236 234 237 239 242 246 249 247 237 225 219 217 215 213 212 212 210 209 211 213 213 213 215 218 219 221 223 224 226 229 231 233 234 235 237 239 243 246 249 250 250 249 248 247 246
234 231 226 226 230 234 240 243 240 235 231 227 226 231 243 261 276 291 301 307 308 307 303 298 295 292 282 266 254 250 248 249 252 256 260 267 272 275 282 291 285 261 243 238 239 240 239 239 242 243 236 225 218 216 215 213 212 212 211 211 212 213 213 214 215 215 214 217 219 220 221 225 229 232 234 235 236 240 243 246 248 249 250 250 249 250 249
225 223 220 221 225 231 238 238 233 226 219 213 211 219 237 256 270 286 303 314 316 312 306 300 295 289 279 263 251 248 248 250 253 254 256 261 268 273 277 281 283 275 258 247 242 239 236 233 234 234 231 225 220 218 216 214 214 212 209 207 209 211 213 214 215 214 215 217 219 219 218 219 223 228 232 233 235 239 243 245 246 248 250 250 249 250 250
Height
5771 5774 5777 5780 5782 5785 5787 5789 5792 5795 5798 5800 5803 5805 5807 5809 5811 5814 5817 5819 5821 5823 5826 5829 5831 5834 5837 5840 5844 5846 5848 5850 5853 5855 5858 5861 5863 5865 5868 5870 5872 5874 5876 5878 5880 5881 5883 5885 5886 5888 5890 5892 5894 5896 5897 5900 5901 5903 5904 5905 5906 5907 5909 5911 5912 5913 5914 5915 5916 5917 5919 5920 5923 5924 5926 5928 5929 5930 5932 5934 5935 5937 5938 5940 5942 5944 5946
5767 5770 5772 5775 5778 5780 5782 5785 5787 5790 5793 5796 5798 5801 5803 5805 5807 5810 5813 5815 5817 5820 5822 5824 5826 5829 5831 5835 5839 5842 5844 5846 5848 5850 5853 5856 5858 5861 5863 5865 5867 5869 5871 5873 5875 5877 5879 5881 5883 5884 5887 5889 5891 5892 5894 5896 5899 5900 5902 5903 5904 5905 5907 5908 5909 5910 5912 5913 5914 5915 5917 5919 5920 5922 5924 5925 5927 5928 5930 5932 5933 5934 5936 5938 5940 5942 5943
5764 5766 5769 5771 5774 5776 5778 5780 5783 5786 5789 5791 5794 5796 5799 5801 5803 5806 5809 5811 5813 5815 5817 5819 5821 5824 5826 5829 5833 5837 5840 5842 5844 5846 5848 5851 5853 5855 5858 5860 5862 5865 5867 5869 5871 5874 5876 5877 5879 5881 5883 5885 5888 5889 5891 5893 5895 5897 5899 5900 5902 5903 5905 5905 5906 5907 5909 5911 5912 5914 5915 5916 5918 5920 5921 5923 5925 5927 5928 5930 5931 5933 5934 5936 5938 5939 5941
5762 5763 5765 5768 5770 5772 5774 5776 5779 5782 5785 5787 5789 5792 5794 5796 5799 5801 5804 5806 5809 5811 5813 5815 5817 5819 5821 5823 5827 5831 5834 5838 5840 5842 5843 5845 5848 5850 5853 5855 5858 5860 5862 5865 5867 5869 5871 5873 5875 5877 5879 5881 5884 5886 5888 5889 5891 5893 5895 5897 5899 5901 5902 5902 5903 5904 5906 5907 5909 5911 5913 5914 5915 5917 5919 5920 5923 5925 5927 5928 5929 5931 5933 5934 5936 5937 5939
5758 5760 5762 5764 5766 5768 5770 5773 5776 5778 5780 5783 5785 5787 5790 5792 5794 5796 5798 5801 5804 5806 5808 5810 5812 5814 5816 5818 5821 5824 5828 5832 5835 5837 5839 5841 5843 5845 5848 5850 5853 5855 5857 5860 5862 5865 5867 5869 5871 5873 5875 5877 5879 5882 5884 5886 5887 5889 5891 5894 5896 5898 5899 5899 5900 5901 5903 5904 5906 5908 5910 5911 5912 5914 5916 5918 5920 5922 5924 5925 5927 5929 5931 5932 5934 5935 5936
5754 5756 5758 5760 5762 5764 5766 5769 5772 5774 5776 5778 5780 5782 5785 5787 5790 5791 5794 5796 5799 5801 5804 5806 5807 5809 5811 5813 5815 5818 5821 5825 5829 5832 5834 5836 5838 5840 5843 5845 5848 5850 5853 5855 5858 5860 5862 5865 5867 5869 5871 5873 5875 5877 5880 5882 5884 5886 5888 5890 5892 5894 5895 5896 5897 5898 5899 5901 5903 5905 5906 5907 5909 5911 5913 5915 5917 5919 5921 5922 5924 5926 5928 5930 5931 5932 5934
5750 5752 5754 5756 5757 5760 5763 5765 5767 5769 5772 5774 5776 5778 5780 5782 5785 5787 5789 5792 5794 5796 5798 5800 5802 5804 5806 5808 5810 5812 5815 5819 5822 5825 5828 5831 5833 5835 5837 5840 5843 5845 5848 5851 5853 5855 5858 5860 5862 5864 5866 5869 5870 5873 5875 5878 5880 5883 5885 5887 5889 5891 5892 5893 5894 5895 5896 5898 5900 5902 5903 5904 5906 5908 5910 5912 5914 5916 5917 5919 5921 5923 5925 5926 5928 5930 5931
5747 5749 5750 5751 5754 5756 5759 5760 5762 5765 5767 5769 5771 5773 5775 5777 5780 5782 5785 5787 5789 5791 5793 5795 5797 5799 5801 5802 5804 5807 5810 5812 5816 5819 5822 5825 5828 5830 5832 5835 5837 5840 5843 5846 5848 5850 5853 5855 5857 5859 5861 5864 5866 5868 5871 5874 5876 5879 5881 5883 5885 5887 5888 5890 5891 5892 5893 5895 5897 5898 5900 5901 5903 5905 5907 5909 5911 5912 5914 5916 5918 5920 5922 5924 5926 5927 5928
5743 5745 5746 5748 5750 5752 5754 5755 5757 5760 5762 5764 5766 5768 5770 5772 5775 5777 5779 5782 5784 5785 5787 5789 5791 5792 5794 5796 5798 5801 5804 5806 5809 5812 5815 5818 5821 5824 5827 5829 5832 5835 5838 5840 5843 5846 5848 5850 5852 5854 5856 5859 5861 5864 5867 5869 5872 5874 5876 5878 5880 5882 5884 5886 5888 5889 5890 5892 5893 5895 5896 5898 5900 5902 5903 5905 5906 5908 5910 5913 5915 5917 5919 5920 5922 5923 5925
5740 5741 5742 5744 5746 5747 5749 5751 5753 5755 5757 5759 5761 5763 5765 5767 5770 5772 5774 5776 5777 5779 5781 5783 5785 5787 5789 5790 5792 5795 5798 5800 5803 5806 5809 5812 5815 5817 5820 5823 5826 5829 5832 5835 5837 5840 5843 5845 5847 5849 5851 5854 5856 5859 5861 5865 5867 5870 5872 5874 5876 5878 5880 5882 5884 5885 5887 5888 5890 5891 5893 5894 5896 5898 5899 5900 5902 5903 5906 5908 5910 5913 5914 5916 5918 5920 5922
5736 5737 5738 5740 5741 5742 5744 5746 5748 5750 5752 5754 5755 5757 5760 5762 5764 5766 5767 5769 5771 5773 5775 5777 5779 5781 5782 5784 5786 5788 5790 5793 5796 5799 5802 5805 5808 5811 5814 5816 5819 5823 5826 5829 5832 5834 5837 5839 5842 5844 5846 5848 5851 5853 5856 5859 5862 5865 5867 5870 5872 5873 5875 5878 5880 5882 5883 5885 5887 5888 5889 5890 5892 5893 5895 5896 5897 5899 5901 5903 5905 5908 5910 5912 5914 5916 5919
5731 5732 5734 5735 5736 5737 5739 5741 5743 5745 5747 5748 5750 5752 5754 5756 5757 5758 5760 5762 5764 5767 5769 5771 5773 5775 5776 5778 5780 5781 5783 5786 5789 5792 5795 5798 5801 5804 5806 5809 5812 5816 5819 5822 5825 5828 5831 5833 5836 5838 5841 5843 5845 5848 5850 5853 5856 5859 5863 5865 5867 5869 5871 5873 5875 5877 5879 5881 5883 5884 5884 5885 5887 5888 5890 5891 5893 5894 5896 5898 5900 5903 5905 5907 5910 5912 5915
5726 5728 5729 5730 5731 5732 5734 5736 5737 5739 5741 5743 5745 5746 5748 5750 5751 5752 5754 5755 5758 5760 5763 5765 5767 5768 5770 5772 5774 5775 5777 5779 5781 5784 5787 5790 5793 5796 5799 5802 5805 5808 5811 5815 5818 5821 5824 5827 5830 5832 5835 5837 5840 5842 5845 5847 5850 5853 5857 5860 5862 5865 5867 5869 5871 5872 5874 5876 5877 5879 5879 5879 5881 5882 5884 5886 5888 5890 5892 5894 5896 5898 5900 5903 5905 5908 5910
5722 5723 5724 5726 5726 5727 5729 5731 5732 5734 5735 5737 5738 5739 5741 5743 5745 5746 5747 5749 5751 5753 5755 5757 5760 5761 5763 5765 5767 5769 5770 5772 5774 5776 5779 5782 5785 5788 5791 5794 5797 5800 5804 5807 5810 5813 5816 5819 5822 5825 5828 5831 5834 5836 5839 5841 5844 5847 5851 5854 5857 5859 5862 5864 5866 5867 5868 5870 5872 5873 5872 5873 5875 5878 5880 5883 5886 5888 5889 5891 5893 5895 5897 5899 5901 5903 5905
5718 5719 5720 5721 5722 5723 5725 5726 5727 5729 5730 5731 5732 5733 5735 5736 5738 5739 5741 5742 5744 5746 5747 5749 5752 5754 5756 5758 5760 5762 5763 5764 5766 5769 5771 5774 5776 5779 5782 5785 5788 5792 5796 5799 5802 5805 5808 5811 5814 5818 5821 5824 5827 5830 5833 5835 5838 5841 5844 5848 5851 5853 5856 5858 5860 5862 5863 5864 5866 5867 5868 5871 5875 5878 5880 5883 5885 5885 5887 5889 5890 5892 5894 5895 5897 5899 5901
5715 5716 5717 5718 5719 5720 5721 5722 5723 5724 5725 5726 5727 5728 5728 5729 5730 5731 5733 5735 5737 5738 5740 5743 5744 5746 5748 5750 5752 5755 5757 5758 5759 5761 5763 5766 5768 5771 5774 5777 5779 5783 5787 5791 5794 5797 5799 5802 5805 5809 5813 5817 5820 5823 5826 5828 5831 5835 5838 5841 5844 5847 5849 5852 5854 5856 5857 5858 5860 5863 5865 5869 5874 5876 5877 5880 5881 5882 5884 5886 5887 5889 5891 5892 5894 5896 5898
5712 5713 5714 5715 5715 5716 5717 5718 5718 5719 5720 5721 5722 5722 5722 5723 5723 5725 5726 5728 5729 5731 5733 5735 5737 5738 5740 5742 5744 5747 5749 5750 5752 5753 5755 5758 5760 5763 5765 5768 5770 5774 5778 5782 5786 5788 5791 5794 5797 5800 5804 5808 5812 5816 5818 5821 5824 5828 5831 5834 5837 5840 5843 5845 5847 5850 5851 5853 5855 5858 5861 5865 5869 5871 5872 5874 5876 5878 5880 5882 5884 5886 5887 5889 5890 5892 5894
5709 5710 5710 5711 5712 5713 5713 5714 5714 5715 5716 5716 5716 5716 5716 5717 5718 5719 5720 5721 5722 5724 5726 5727 5729 5730 5731 5733 5735 5737 5740 5742 5743 5745 5747 5749 5751 5754 5757 5760 5762 5765 5769 5774 5778 5780 5783 5785 5788 5792 5795 5799 5804 5807 5810 5813 5817 5820 5824 5827 5830 5833 5836 5839 5841 5843 5845 5847 5850 5854 5857 5859 5863 5866 5867 5869 5871 5873 5875 5878 5880 5882 5884 5885 5887 5889 5891
5706 5706 5706 5707 5708 5708 5709 5710 5710 5710 5711 5711 5711 5711 5711 5711 5712 5713 5714 5715 5716 5717 5718 5719 5720 5721 5722 5724 5726 5728 5730 5732 5734 5736 5738 5740 5742 5745 5749 5751 5753 5756 5760 5765 5769 5772 5775 5777 5780 5784 5787 5790 5794 5799 5802 5805 5809 5812 5816 5820 5823 5826 5829 5832 5834 5836 5838 5841 5844 5848 5851 5854 5857 5860 5862 5864 5866 5868 5871 5873 5875 5877 5879 5881 5883 5885 5887
5701 5701 5702 5703 5703 5704 5705 5705 5705 5706 5706 5706 5706 5706 5706 5706 5707 5707 5707 5708 5709 5709 5710 5711 5712 5713 5714 5715 5717 5719 5721 5722 5724 5727 5729 5731 5733 5736 5739 5742 5745 5747 5750 5755 5760 5764 5767 5769 5771 5775 5780 5782 5785 5790 5794 5797 5801 5804 5808 5812 5815 5818 5821 5824 5827 5829 5831 5834 5838 5841 5845 5848 5851 5854 5857 5858 5860 5863 5866 5868 5870 5872 5874 5876 5878 5880 5882
5696 5697 5697 5698 5698 5699 5700 5700 5700 5701 5701 5701 5701 5701 5701 5701 5701 5701 5702 5702 5702 5702 5702 5703 5703 5705 5706 5706 5708 5709 5711 5713 5714 5716 5718 5720 5723 5726 5729 5732 5735 5738 5741 5745 5749 5754 5759 5761 5762 5766 5771 5775 5777 5780 5785 5789 5793 5796 5800 5803 5807 5810 5813 5816 5820 5823 5825 5828 5831 5835 5838 5842 5845 5848 5851 5853 5855 5857 5860 5863 5865 5866 5868 5871 5874 5876 5877
5691 5693 5692 5692 5693 5694 5695 5695 5695 5696 5696 5695 5695 5695 5695 5695 5695 5696 5696 5696 5695 5695 5695 5695 5695 5696 5697 5697 5699 5701 5703 5704 5705 5706 5707 5710 5713 5715 5718 5721 5725 5728 5731 5734 5738 5743 5749 5751 5753 5757 5762 5766 5769 5772 5775 5779 5784 5788 5792 5796 5799 5802 5806 5809 5812 5816 5819 5822 5824 5828 5831 5835 5838 5842 5845 5847 5849 5852 5855 5857 5859 5861 5863 5866 5869 5870 5871
5686 5687 5686 5686 5687 5688 5689 5689 5690 5690 5690 5690 5690 5689 5689 5689 5689 5689 5690 5689 5689 5688 5688 5687 5688 5688 5688 5689 5690 5692 5694 5694 5695 5696 5697 5699 5702 5704 5706 5710 5714 5717 5720 5723 5728 5733 5737 5741 5744 5747 5752 5757 5761 5764 5766 5769 5774 5779 5784 5789 5792 5795 5798 5802 5805 5808 5812 5815 5818 5821 5825 5828 5832 5835 5838 5841 5843 5846 5849 5851 5853 5855 5858 5861 5863 5864 5867
5681 5681 5680 5679 5680 5682 5683 5684 5684 5684 5684 5684 5684 5683 5683 5683 5683 5683 5683 5682 5682 5681 5680 5680 5680 5679 5680 5680 5681 5683 5685 5685 5686 5687 5688 5690 5692 5694 5695 5698 5702 5705 5709 5713 5717 5722 5726 5731 5734 5738 5742 5747 5751 5755 5757 5760 5764 5769 5775 5781 5786 5789 5791 5794 5797 5800 5805 5808 5811 5814 5818 5821 5824 5828 5832 5835 5838 5841 5843 5845 5847 5850 5852 5855 5857 5859 5862
5675 5675 5675 5674 5675 5676 5677 5678 5678 5678 5678 5678 5678 5677 5677 5677 5676 5676 5675 5675 5674 5674 5673 5673 5672 5671 5671 5672 5672 5673 5675 5676 5677 5678 5679 5681 5682 5683 5685 5687 5689 5693 5697 5701 5706 5711 5716 5720 5724 5728 5732 5737 5741 5745 5748 5751 5754 5759 5765 5771 5778 5782 5785 5786 5789 5792 5796 5800 5803 5807 5810 5813 5817 5821 5824 5828 5831 5834 5836 5839 5842 5844 5847 5849 5851 5853 5856
5670 5670 5670 5670 5671 5671 5672 5672 5672 5672 5673 5673 5672 5671 5671 5670 5670 5669 5668 5667 5667 5666 5666 5666 5665 5664 5663 5663 5664 5664 5666 5667 5668 5669 5671 5672 5673 5673 5675 5676 5678 5680 5684 5688 5693 5698 5703 5709 5713 5717 5722 5727 5731 5734 5738 5741 5744 5749 5755 5761 5768 5774 5777 5779 5782 5784 5787 5791 5795 5799 5802 5805 5809 5813 5817 5821 5824 5827 5830 5833 5836 5838 5841 5843 5845 5848 5850
5665 5665 5666 5666 5666 5666 5666 5667 5667 5667 5667 5667 5666 5666 5665 5664 5663 5662 5661 5660 5659 5659 5658 5657 5657 5656 5656 5655 5655 5656 5656 5657 5658 5659 5661 5663 5664 5664 5665 5666 5667 5669 5672 5675 5681 5686 5690 5695 5701 5707 5713 5717 5719 5723 5728 5731 5734 5739 5744 5750 5758 5764 5769 5772 5775 5778 5780 5783 5787 5791 5794 5797 5801 5805 5809 5813 5817 5820 5823 5826 5829 5832 5835 5837 5839 5841 5844
5660 5660 5661 5661 5661 5661 5662 5662 5662 5662 5662 5661 5661 5660 5659 5658 5657 5656 5654 5653 5652 5651 5650 5649 5649 5649 5648 5647 5647 5647 5647 5648 5649 5650 5652 5653 5655 5656 5656 5656 5657 5659 5661 5665 5669 5673 5677 5682 5688 5696 5703 5706 5707 5712 5717 5720 5724 5729 5734 5740 5747 5754 5759 5763 5768 5771 5773 5775 5778 5782 5786 5789 5793 5798 5802 5806 5810 5813 5817 5820 5822 5826 5828 5830 5832 5834 5837
5656 5656 5656 5656 5656 5656 5657 5657 5657 5656 5656 5656 5655 5654 5653 5652 5651 5649 5648 5646 5645 5644 5643 5642 5641 5640 5640 5640 5639 5639 5639 5639 5640 5642 5643 5645 5646 5646 5647 5647 5648 5650 5653 5656 5659 5661 5664 5669 5676 5684 5691 5693 5694 5700 5706 5710 5714 5720 5725 5730 5736 5744 5750 5755 5759 5763 5766 5768 5771 5774 5778 5782 5786 5790 5795 5799 5802 5806 5810 5813 5816 5819 5822 5823 5825 5828 5830
5652 5652 5652 5652 5652 5652 5652 5652 5651 5651 5651 5650 5650 5649 5648 5646 5645 5643 5641 5639 5638 5637 5636 5635 5634 5633 5632 5631 5631 5631 5631 5632 5633 5634 5635 5636 5637 5638 5638 5639 5640 5643 5645 5648 5649 5650 5653 5657 5663 5672 5678 5680 5681 5687 5695 5700 5705 5710 5714 5719 5726 5733 5739 5745 5750 5754 5758 5761 5764 5767 5770 5774 5779 5783 5787 5791 5795 5798 5802 5806 5809 5813 5815 5817 5819 5821 5823
5648 5648 5648 5648 5648 5648 5647 5647 5646 5646 5646 5645 5644 5643 5642 5640 5639 5637 5635 5633 5632 5631 5629 5628 5627 5626 5625 5624 5623 5623 5623 5624 5625 5627 5628 5628 5629 5629 5629 5630 5632 5635 5637 5638 5639 5641 5643 5647 5653 5660 5666 5667 5669 5675 5683 5690 5695 5700 5704 5709 5716 5722 5728 5735 5741 5745 5749 5752 5756 5760 5763 5767 5771 5775 5780 5784 5787 5791 5795 5799 5802 5806 5809 5811 5813 5815 5817
5644 5644 5644 5644 5643 5643 5642 5642 5641 5641 5641 5640 5639 5638 5636 5635 5633 5632 5630 5628 5626 5625 5623 5622 5621 5619 5618 5617 5616 5616 5616 5617 5618 5619 5620 5621 5621 5622 5622 5622 5624 5627 5628 5630 5631 5632 5634 5638 5643 5649 5652 5654 5657 5663 5671 5678 5685 5690 5694 5699 5705 5711 5717 5724 5730 5735 5739 5743 5748 5753 5756 5759 5763 5768 5772 5776 5780 5784 5788 5791 5795 5798 5802 5804 5807 5809 5810
5640 5639 5639 5639 5639 5638 5637 5637 5636 5636 5636 5635 5634 5632 5631 5629 5628 5626 5624 5622 5621 5619 5618 5616 5615 5613 5612 5611 5610 5609 5609 5610 5611 5612 5613 5614 5614 5614 5614 5615 5616 5618 5620 5621 5623 5624 5626 5630 5634 5637 5640 5643 5647 5652 5658 5666 5674 5680 5685 5689 5694 5700 5707 5713 5719 5725 5731 5735 5739 5744 5749 5753 5756 5760 5764 5769 5773 5777 5781 5784 5788 5791 5794 5798 5801 5803 5804
5635 5635 5634 5634 5634 5633 5633 5632 5631 5631 5631 5629 5628 5627 5626 5624 5623 5621 5619 5617 5615 5613 5612 5610 5608 5607 5606 5605 5604 5604 5604 5604 5605 5605 5606 5607 5607 5606 5606 5607 5609 5610 5611 5612 5614 5616 5618 5621 5624 5626 5629 5632 5636 5641 5647 5654 5662 5669 5675 5680 5684 5689 5696 5702 5708 5715 5721 5726 5730 5735 5740 5745 5749 5752 5756 5761 5766 5770 5774 5777 5781 5784 5787 5791 5794 5796 5798
5631 5630 5630 5629 5629 5628 5628 5627 5627 5626 5626 5624 5623 5622 5621 5619 5617 5616 5613 5611 5609 5607 5606 5604 5603 5601 5600 5599 5599 5599 5598 5598 5599 5600 5600 5600 5599 5599 5599 5600 5601 5602 5603 5604 5605 5607 5609 5611 5614 5616 5619 5623 5626 5630 5637 5643 5650 5657 5665 5670 5674 5679 5684 5691 5698 5705 5712 5717 5722 5726 5731 5737 5742 5745 5749 5753 5758 5763 5767 5770 5774 5777 5781 5784 5787 5790 5792
5626 5625 5625 5625 5624 5623 5623 5622 5622 5621 5621 5620 5618 5617 5616 5615 5613 5611 5609 5606 5604 5602 5601 5599 5597 5596 5595 5594 5594 5594 5593 5593 5594 5594 5595 5594 5594 5593 5593 5594 5594 5595 5596 5596 5597 5599 5601 5603 5606 5608 5611 5614 5617 5622 5627 5633 5639 5646 5653 5660 5664 5668 5673 5680 5688 5696 5702 5708 5713 5718 5722 5727 5733 5738 5742 5746 5750 5755 5759 5763 5767 5770 5774 5777 5780 5783 5785
5621 5621 5620 5620 5619 5618 5618 5617 5617 5616 5616 5615 5614 5613 5612 5610 5608 5606 5604 5602 5600 5598 5596 5594 5593 5591 5590 5589 5589 5589 5589 5589 5589 5590 5590 5589 5589 5588 5588 5588 5588 5589 5589 5590 5591 5592 5594 5596 5598 5601 5604 5607 5611 5615 5619 5623 5629 5635 5642 5649 5654 5658 5663 5670 5679 5686 5692 5699 5704 5709 5714 5718 5723 5729 5734 5739 5743 5748 5752 5756 5760 5763 5767 5770 5773 5776 5778
5617 5616 5616 5615 5614 5613 5613 5612 5612 5612 5611 5610 5610 5609 5608 5606 5604 5602 5600 5598 5596 5594 5592 5590 5588 5587 5585 5585 5585 5585 5585 5585 5585 5586 5585 5585 5584 5584 5583 5583 5583 5582 5583 5584 5585 5586 5588 5590 5592 5595 5599 5601 5605 5608 5611 5615 5620 5626 5632 5638 5643 5649 5655 5661 5669 5677 5683 5689 5695 5701 5706 5710 5715 5720 5725 5731 5736 5741 5744 5748 5752 5756 5759 5762 5765 5768 5771
5611 5611 5611 5610 5609 5608 5608 5607 5607 5607 5607 5606 5605 5605 5603 5602 5600 5598 5596 5594 5592 5590 5588 5586 5584 5583 5582 5581 5581 5581 5581 5581 5581 5581 5581 5580 5580 5579 5578 5577 5577 5577 5577 5578 5579 5581 5583 5585 5588 5591 5593 5596 5599 5602 5605 5609 5613 5618 5623 5628 5634 5641 5647 5653 5660 5667 5674 5680 5686 5692 5698 5703 5707 5711 5716 5721 5728 5733 5737 5741 5744 5748 5751 5754 5757 5760 5763
5606 5606 5605 5605 5604 5604 5603 5602 5602 5603 5603 5602 5601 5600 5599 5598 5596 5595 5593 5591 5589 5587 5585 5583 5581 5579 5578 5578 5578 5578 5578 5578 5578 5577 5577 5576 5576 5575 5574 5573 5572 5572 5572 5573 5574 5576 5578 5581 5583 5585 5588 5591 5594 5596 5599 5603 5607 5611 5615 5620 5626 5633 5639 5645 5652 5658 5665 5671 5677 5683 5689 5694 5699 5704 5708 5713 5718 5723 5729 5733 5736 5740 5743 5746 5749 5752 5755
5601 5600 5600 5600 5600 5599 5598 5598 5598 5599 5599 5598 5597 5596 5595 5594 5592 5591 5590 5588 5586 5584 5582 5580 5578 5576 5575 5574 5574 5575 5575 5574 5574 5574 5573 5572 5572 5571 5571 5570 5569 5568 5568 5569 5570 5572 5574 5576 5579 5581 5584 5586 5589 5592 5595 5598 5601 5605 5608 5613 5619 5626 5632 5639 5645 5651 5656 5662 5668 5675 5681 5686 5691 5696 5701 5705 5709 5714 5719 5724 5728 5731 5735 5738 5741 5745 5748
5596 5595 5594 5595 5595 5595 5594 5594 5594 5594 5594 5594 5593 5592 5591 5590 5589 5588 5587 5585 5584 5582 5580 5578 5576 5574 5572 5571 5571 5571 5571 5571 5571 5571 5570 5570 5569 5568 5567 5566 5566 5566 5566 5566 5567 5569 5570 5573 5575 5577 5580 5582 5585 5587 5590 5593 5596 5599 5603 5607 5612 5618 5625 5632 5638 5643 5648 5653 5659 5666 5672 5678 5683 5688 5693 5698 5702 5705 5709 5714 5719 5723 5727 5730 5734 5737 5740
5590 5589 5589 5589 5590 5590 5590 5590 5590 5590 5590 5590 5589 5588 5587 5586 5585 5584 5584 5583 5581 5579 5578 5576 5573 5572 5570 5569 5568 5568 5568 5568 5568 5568 5568 5567 5567 5565 5564 5563 5563 5564 5564 5564 5565 5566 5568 5570 5572 5574 5576 5579 5581 5583 5585 5588 5591 5594 5598 5602 5607 5613 5619 5626 5631 5636 5641 5646 5651 5658 5664 5670 5676 5681 5686 5690 5695 5698 5702 5705 5710 5715 5719 5723 5726 5730 5733
5583 5583 5584 5584 5584 5585 5585 5585 5585 5586 5586 5585 5585 5584 5584 5583 5582 5581 5581 5580 5579 5577 5575 5573 5572 5570 5569 5567 5566 5566 5566 5565 5566 5566 5565 5565 5564 5564 5562 5562 5562 5562 5562 5563 5564 5564 5565 5567 5569 5571 5573 5575 5577 5579 5581 5584 5587 5590 5594 5598 5603 5609 5615 5621 5626 5631 5636 5640 5645 5650 5657 5663 5669 5674 5678 5683 5687 5691 5695 5698 5702 5707 5711 5715 5718 5722 5725
5575 5577 5578 5578 5577 5578 5580 5580 5580 5581 5581 5581 5581 5581 5580 5579 5579 5578 5577 5577 5576 5574 5573 5571 5570 5568 5567 5566 5565 5564 5564 5564 5564 5564 5564 5563 5562 5562 5561 5561 5561 5561 5561 5562 5562 5563 5564 5565 5567 5569 5571 5573 5574 5576 5578 5581 5583 5586 5590 5595 5600 5606 5613 5618 5623 5627 5630 5634 5639 5644 5650 5656 5661 5666 5671 5676 5680 5684 5688 5691 5695 5699 5703 5707 5711 5714 5718
5568 5569 5570 5570 5571 5573 5574 5575 5576 5576 5576 5577 5577 5577 5577 5576 5575 5575 5574 5573 5572 5571 5570 5569 5567 5566 5565 5564 5564 5563 5562 5562 5562 5562 5562 5561 5561 5560 5560 5560 5560 5560 5560 5561 5561 5562 5563 5565 5566 5568 5569 5570 5572 5574 5576 5578 5580 5584 5588 5592 5597 5603 5609 5614 5618 5621 5625 5629 5634 5638 5644 5649 5654 5660 5665 5669 5673 5677 5681 5684 5688 5692 5695 5699 5702 5706 5710
5560 5561 5562 5563 5566 5568 5569 5571 5571 5572 5572 5573 5573 5574 5573 5573 5572 5572 5571 5570 5569 5568 5567 5566 5565 5563 5562 5562 5562 5562 5561 5561 5561 5561 5560 5560 5559 5559 5559 5559 5559 5559 5560 5560 5561 5562 5563 5564 5565 5566 5567 5568 5570 5572 5574 5576 5579 5581 5585 5589 5594 5599 5605 5609 5613 5617 5621 5626 5630 5634 5639 5644 5649 5654 5659 5663 5666 5670 5673 5677 5680 5684 5687 5691 5694 5698 5702
5553 5554 5555 5557 5560 5562 5565 5566 5567 5568 5568 5569 5570 5570 5570 5570 5569 5569 5568 5567 5566 5565 5564 5563 5562 5561 5560 5560 5560 5560 5560 5560 5559 5559 5558 5558 5558 5558 5557 5557 5558 5558 5559 5559 5560 5561 5562 5562 5563 5564 5566 5567 5568 5570 5572 5575 5578 5580 5583 5588 5592 5597 5601 5605 5610 5614 5618 5622 5626 5630 5635 5639 5644 5648 5652 5656 5660 5663 5666 5669 5672 5676 5679 5683 5686 5690 5694
5548 5549 5551 5553 5555 5558 5560 5562 5563 5564 5564 5566 5567 5567 5567 5567 5567 5566 5566 5565 5564 5563 5562 5561 5560 5559 5558 5558 5558 5559 5559 5558 5558 5557 5557 5556 5556 5556 5556 5556 5556 5557 5557 5558 5559 5560 5561 5561 5562 5563 5564 5566 5568 5569 5571 5574 5576 5579 5582 5586 5590 5594 5598 5603 5607 5611 5615 5619 5623 5626 5631 5635 5638 5641 5644 5649 5653 5656 5660 5663 5665 5668 5671 5675 5678 5682 5685
5544 5546 5547 5550 5552 5554 5557 5559 5560 5560 5561 5563 5564 5564 5564 5564 5564 5564 5563 5562 5561 5560 5559 5558 5557 5557 5556 5556 5556 5557 5557 5557 5556 5556 5555 5555 5556 5556 5555 5555 5555 5555 5556 5557 5558 5559 5559 5560 5561 5562 5563 5565 5566 5568 5570 5573 5576 5578 5581 5584 5588 5591 5596 5600 5604 5608 5612 5616 5619 5622 5626 5630 5633 5635 5638 5642 5646 5649 5653 5656 5659 5662 5664 5667 5670 5673 5677
5541 5543 5545 5547 5549 5552 5554 5555 5556 5557 5559 5560 5561 5562 5562 5562 5562 5562 5561 5560 5559 5558 5557 5556 5555 5555 5555 5554 5554 5555 5555 5555 5555 5554 5554 5554 5555 5555 5555 5555 5555 5554 5555 5556 5556 5557 5558 5559 5560 5561 5562 5564 5565 5567 5570 5572 5575 5578 5580 5583 5586 5590 5594 5597 5601 5605 5608 5611 5614 5617 5621 5625 5628 5630 5634 5637 5639 5643 5647 5650 5653 5655 5658 5661 5663 5666 5669
5539 5541 5543 5545 5548 5550 5552 5553 5554 5555 5556 5558 5559 5559 5559 5560 5560 5559 5559 5558 5557 5556 5555 5554 5553 5553 5553 5553 5553 5553 5553 5554 5554 5553 5553 5554 5554 5554 5554 5554 5554 5554 5554 5554 5555 5556 5557 5558 5559 5560 5561 5563 5564 5566 5569 5571 5573 5575 5577 5580 5584 5588 5591 5595 5598 5601 5605 5607 5610 5614 5617 5621 5624 5626 5629 5631 5634 5637 5641 5644 5647 5649 5651 5654 5656 5659 5662